Regional Weather Roundup
Issued by NWS Jackson, KY

Home | Current Version | Previous Version | Graphics & Text | Print | Product List | Glossary On
Versions: 1 2 3 4 5 6 7 8 9 10 11 12 13 14 15 16 17 18 19 20 21 22 23 24 25 26 27 28 29 30 31 32 33 34 35 36 37 38 39 40 41 42 43 44 45 46 47 48 49 50
000
ASUS43 KJKL 192010
RWRJKL

EAST KENTUCKY HOURLY WEATHER ROUNDUP
NATIONAL WEATHER SERVICE JACKSON KY
300 PM EST FRI DEC 19 2014

NOTE: "FAIR" INDICATES FEW OR NO CLOUDS BELOW 12,000 FEET WITH
NO SIGNIFICANT WEATHER AND/OR OBSTRUCTIONS TO VISIBILITY.

* THESE REPORTS ARE NOT UNDER NWS QUALITY CONTROL AND MAY NOT
  REPORT WEATHER SUCH AS PRECIPITATION AND FOG.

KYZ079-080-083-085-087-088-110-112-115-119-120-192100
...EASTERN KENTUCKY...

CITY           SKY/WX    TMP DP  RH WIND       PRES   REMARKS
JACKSON        CLOUDY    38  23  55 CALM      30.18F
LONDON         CLOUDY    40  25  55 NW5       30.18F
SOMERSET*      PTSUNNY   37  27  65 CALM      30.22R
MONTICELLO*    CLOUDY    40  28  62 CALM      30.24R
MIDDLESBORO*   CLOUDY    43  27  54 N6        30.17S
HARLAN APT*    CLOUDY    41  27  56 CALM      30.16S
BLACK MTN*       N/A     32  27  80 NE1         N/A
PIKEVILLE APT* SUNNY     34  25  69 N5        30.19F WCI  30
BIG SANDY*     CLOUDY    34  25  68 N3        30.21F
MOREHEAD APT*  CLOUDY    34  21  60 CALM      30.25S
$$

KYZ035-036-041-042-044-050-067-078-099-192100
...CENTRAL KENTUCKY...

CITY           SKY/WX    TMP DP  RH WIND       PRES   REMARKS
MT STERLING*   PTSUNNY   32  25  74 NE3       30.23F
FLEMING/MASON* CLOUDY    28  21  74 N3        30.25F
DANVILLE*      CLOUDY    34  27  75 NE6       30.21F WCI  29
RICHMOND*      CLOUDY    36  23  60 NE5       30.19F WCI  32
LEXINGTON      PTSUNNY   33  23  66 NE6       30.22F WCI  28
FRANKFORT      PTSUNNY   33  21  61 NE3       30.22F
$$

KYZ091>093-OHZ055-061-077-WVZ005-015-034-035-042-192100
...SOUTHERN OHIO/WEST VIRGINIA...

CITY           SKY/WX    TMP DP  RH WIND       PRES   REMARKS
COVINGTON      CLOUDY    30  19  63 CALM      30.25S
COLUMBUS       CLOUDY    30  22  72 CALM      30.26R
DAYTON         CLOUDY    31  23  72 W3        30.25S
WILMINGTON     CLOUDY    29  21  72 CALM      30.23S
HUNTINGTON     CLOUDY    31  22  69 CALM      30.25R
CHARLESTON     CLOUDY    31  21  66 SW3       30.25R
PINEVILLE*     PTSUNNY   37  28  68 MISG      30.22F
BECKLEY        PTSUNNY   32  21  64 NW5       30.14S WCI  27
BLUEFIELD      PTSUNNY   36  23  59 NW7       30.11F WCI  30
$$

VAZ002-007-008-TNZ017-027-036-066-071-192100
...SOUTHWEST VIRGINIA/EAST TENNESSEE...

CITY           SKY/WX    TMP DP  RH WIND       PRES   REMARKS
WISE*          CLOUDY    37  25  60 NW3       30.14S
JONESVILLE*    CLOUDY    43  23  45 N3        30.17F
ABINGDON*      CLOUDY    42  23  45 N5        30.13F
BRISTOL        CLOUDY    45  22  40 CALM      30.14F
KNOXVILLE      CLOUDY    46  27  47 NE7       30.15F
OAK RIDGE      PTSUNNY   47  23  38 E8        30.16F
CROSSVILLE     CLOUDY    40  24  53 N5        30.16R
NASHVILLE      CLOUDY    41  27  57 N5        30.25R
$$

...KEY TO REMARKS...
VSB - VISIBILITY IN MILES
WCI - WIND CHILL INDEX
HX  - HEAT INDEX

$$



USA.gov is the U.S. government's official web portal to all federal, state and local government web resources and services.